Regional Weather Roundup
Issued by NWS

Home | Current Version | Previous Version | Graphics & Text | Print | Product List | Glossary On
Versions: 1 2 3 4 5 6 7 8 9 10 11 12 13 14 15 16 17 18 19 20 21 22 23 24 25 26 27 28 29 30 31 32 33 34 35 36 37 38 39 40 41 42 43 44 45 46 47 48 49 50
000
ASUS43 KBIS 242120
RWRND

NORTH DAKOTA REGIONAL WEATHER ROUNDUP
NATIONAL WEATHER SERVICE BISMARCK ND
400 PM CDT FRI OCT 24 2014

NOTE: "FAIR" INDICATES FEW OR NO CLOUDS BELOW 12,000 FEET WITH NO
SIGNIFICANT WEATHER AND/OR OBSTRUCTIONS TO VISIBILITY.


NDZ001>003-009>011-017-242200-
NORTHWEST NORTH DAKOTA

CITY           SKY/WX    TMP DP  RH WIND       PRES   REMARKS
WILLISTON      MOSUNNY   61  28  28 W23       29.93R
MINOT          SUNNY     65  27  23 W23G37    29.85R
MINOT AFB      SUNNY     64  31  28 W28G33    29.83R
$$

NDZ018>021-031>035-040>046-242200-
SOUTHWEST NORTH DAKOTA

CITY           SKY/WX    TMP DP  RH WIND       PRES   REMARKS
BISMARCK       MOSUNNY   68  35  29 W20G29    29.91R
DICKINSON      CLOUDY    59  31  34 W16G24    29.96R
GARRISON         N/A     65  28  24 W22G33    29.89R
HETTINGER ARPT CLOUDY    64  30  27 NW20      30.00S
$$

NDZ004>008-012>016-024-026-027-054-242200-
NORTHEAST NORTH DAKOTA

CITY           SKY/WX    TMP DP  RH WIND       PRES   REMARKS
GRAND FORKS    MOSUNNY   72  39  30 W17G30    29.74R
GRND FRKS AFB  SUNNY     72  39  30 W17G30    29.75R
DEVILS LAKE    SUNNY     66  30  26 W29       29.78R
$$

NDZ022-023-025-028>030-036>039-047>053-242200-
SOUTHEAST NORTH DAKOTA

CITY           SKY/WX    TMP DP  RH WIND       PRES   REMARKS
FARGO          SUNNY     77  41  27 W21       29.77R
JAMESTOWN      SUNNY     71  40  32 W20       29.83R
$$




USA.gov is the U.S. government's official web portal to all federal, state and local government web resources and services.